This demonstration page uses our WeatherBlox Daily Observations layout. Learn more.

Left ArrowRight Arrow

53.62937, 11.41316

Hourly Observations for November 27, 2019

Temp ( °F °C ) Dew Point ( °F °C ) Humidity (%) Winds ( mph kmh ) Pressure ( in mb ) Visibility ( mi km ) Precip ( " mm )
6:50 am 06:50 Partly Cloudy 45 7 43 6 93 93 ESE 7 11 29.41 996 30 48 N/A
7:20 am 07:20 Mostly Cloudy 45 7 43 6 93 93 ESE 7 11 29.38 995 30 48 N/A
7:50 am 07:50 Mostly Cloudy 45 7 43 6 93 93 SE 8 13 29.38 995 30 48 N/A
8:20 am 08:20 Mostly Cloudy 45 7 43 6 93 93 ESE 6 9 29.38 995 30 48 N/A
8:50 am 08:50 Partly Cloudy 45 7 43 6 93 93 ESE 7 11 29.38 995 30 48 N/A
9:20 am 09:20 Mostly Sunny 45 7 43 6 93 93 ESE 7 11 29.35 994 30 48 N/A
9:50 am 09:50 Partly Cloudy 45 7 43 6 93 93 ESE 7 11 29.35 994 30 48 N/A
10:20 am 10:20 Mostly Cloudy 45 7 43 6 93 93 SE 7 11 29.35 994 30 48 N/A
10:50 am 10:50 Mostly Cloudy 46 8 43 6 87 87 SE 7 11 29.35 994 30 48 N/A
11:20 am 11:20 Mostly Cloudy 46 8 43 6 87 87 SE 6 9 29.32 993 30 48 N/A
11:50 am 11:50 Mostly Cloudy 46 8 43 6 87 87 SE 7 11 29.32 993 30 48 N/A
12:20 pm 12:20 Mostly Cloudy 46 8 43 6 87 87 SE 7 11 29.32 993 30 48 N/A
12:50 pm 12:50 Mostly Cloudy 46 8 43 6 87 87 SE 7 11 29.30 992 30 48 N/A
1:20 pm 13:20 Partly Cloudy 46 8 43 6 87 87 SSE 8 13 29.30 992 30 48 N/A
1:50 pm 13:50 Partly Cloudy 46 8 43 6 87 87 SSE 8 13 29.30 992 30 48 N/A
2:20 pm 14:20 Mostly Cloudy with Light Rain 46 8 43 6 87 87 SSE 7 11 29.30 992 30 48 N/A
2:50 pm 14:50 Mostly Cloudy with Light Rain 45 7 43 6 93 93 SSE 7 11 29.30 992 30 48 N/A
3:20 pm 15:20 Mostly Cloudy with Light Rain 45 7 43 6 93 93 SSE 7 11 29.30 992 6 9 N/A
3:50 pm 15:50 Mostly Cloudy with Light Rain 45 7 43 6 93 93 SSE 7 11 29.27 991 30 48 N/A
4:20 pm 16:20 Mostly Cloudy 45 7 45 7 100 100 SSE 7 11 29.27 991 30 48 N/A
4:50 pm 16:50 Mostly Cloudy 45 7 45 7 100 100 SSE 6 9 29.27 991 30 48 N/A
5:20 pm 17:20 Mostly Cloudy 46 8 45 7 93 93 SSE 7 11 29.27 991 30 48 N/A
5:50 pm 17:50 Partly Cloudy 46 8 45 7 93 93 SE 7 11 29.27 991 30 48 N/A
6:20 pm 18:20 Partly Cloudy 46 8 45 7 93 93 SSE 6 9 29.27 991 30 48 N/A
6:50 pm 18:50 Partly Cloudy with Light Rain 46 8 45 7 93 93 SSE 6 9 29.27 991 30 48 N/A
7:20 pm 19:20 Partly Cloudy 46 8 45 7 93 93 SSE 6 9 29.24 990 30 48 N/A
7:50 pm 19:50 Partly Cloudy 46 8 45 7 93 93 SSE 6 9 29.24 990 30 48 N/A

Powered by AerisWeather